Temperature
21 20 19 19 18 20 22 24 25 26 26 26 27 26 25 24 23 23 24 24 24 23 21 21 21 21 21 21 21 21 21 21 21 21 21 20 20 20 20 20 20 20 20 20 20 19 20 20 20
22 20 19 19 20 22 24 26 26 26 27 27 27 26 25 23 24 24 24 23 23 23 22 21 21 21 21 21 21 21 21 21 21 21 21 20 20 20 20 20 20 20 20 20 20 20 20 20 20
22 21 20 19 21 23 25 26 26 27 27 27 26 26 25 24 24 24 25 24 23 22 22 21 21 21 21 21 21 21 21 21 21 21 21 20 20 20 20 20 20 20 20 20 20 20 20 20 20
22 21 21 20 23 24 25 27 27 27 27 27 26 25 24 24 25 25 25 24 23 22 22 21 21 21 21 21 21 21 21 21 21 21 21 20 20 20 20 20 20 20 20 20 20 20 20 20 20
22 22 21 21 23 24 26 27 27 27 27 26 26 24 24 24 25 25 25 24 23 22 22 21 21 21 21 21 21 21 21 21 21 21 21 21 20 20 20 20 20 20 20 20 20 20 20 19 19
23 21 21 22 24 25 26 27 27 27 26 26 25 24 24 24 25 25 25 24 23 22 22 21 21 21 21 21 21 21 21 21 21 21 21 20 20 20 20 20 20 20 20 20 20 19 19 19 19
23 20 22 24 24 25 27 28 27 26 26 26 26 24 24 24 24 24 24 23 23 22 22 21 21 21 21 21 21 21 21 21 21 21 20 20 20 20 20 20 20 20 19 19 19 19 19 19 19
25 20 23 23 24 25 27 27 28 27 27 27 27 25 25 25 24 24 23 23 22 22 21 21 20 20 20 20 20 20 20 20 20 20 20 20 20 20 20 20 19 19 19 19 19 19 19 19 19
25 21 22 24 25 25 27 27 28 28 27 27 27 27 27 26 24 23 23 22 21 21 21 20 20 20 20 20 20 20 20 20 20 20 20 20 20 20 20 19 19 19 19 19 19 19 18 18 18
24 21 23 24 25 25 26 26 27 27 26 26 27 26 26 26 24 23 23 22 21 21 20 20 20 20 20 20 20 20 20 19 19 19 19 19 19 19 19 19 19 19 18 18 18 18 18 18 18
23 22 24 25 27 27 26 27 27 26 25 26 27 27 26 25 23 23 22 22 22 21 20 19 19 19 19 19 19 19 19 19 19 19 19 19 19 19 19 19 19 18 18 18 18 18 18 18 18
24 24 25 26 28 27 27 27 26 26 26 28 27 26 25 24 23 22 21 21 21 20 20 19 19 19 19 19 19 19 19 20 19 19 19 19 19 19 19 18 18 18 18 18 18 18 18 18 18
24 24 26 27 27 26 26 26 26 25 27 26 25 24 23 23 22 21 21 20 20 20 20 19 19 19 19 19 19 20 20 20 20 20 19 19 18 18 18 18 18 18 18 18 18 18 18 18 18
24 24 24 25 26 26 26 24 24 24 25 24 23 22 22 21 21 20 20 20 19 20 20 19 19 19 19 19 19 20 20 19 19 19 19 18 18 18 18 18 18 18 18 18 18 18 17 17 17
24 23 23 24 25 26 25 23 21 21 22 21 20 20 19 19 19 19 19 19 19 19 19 19 19 19 19 19 19 19 19 19 19 19 18 18 18 18 18 18 18 18 18 17 17 17 17 17 17
23 23 23 23 22 24 23 21 20 20 20 19 18 17 18 18 18 18 18 18 18 18 18 18 18 18 18 18 18 18 18 18 18 18 18 18 18 17 17 17 17 17 17 17 17 17 17 17 17
21 22 23 22 22 21 20 19 19 18 18 17 17 16 17 17 17 17 17 18 18 17 17 17 17 17 17 17 17 17 17 17 17 17 17 17 17 17 17 17 17 17 17 17 17 17 17 17 17
23 23 23 22 21 20 19 18 18 17 17 17 16 16 16 16 16 16 17 17 17 17 17 17 17 17 17 17 17 17 17 17 17 16 16 17 17 17 17 17 18 18 17 17 17 17 17 17 17
23 23 23 22 22 19 18 17 17 17 16 16 15 15 15 15 16 16 16 17 17 17 17 17 17 17 17 17 16 16 16 16 16 16 16 16 16 17 17 17 18 18 18 18 17 17 17 17 17
22 23 23 22 21 19 18 17 17 16 16 15 15 15 15 16 16 16 16 16 17 17 17 17 17 16 16 16 16 16 15 16 16 16 16 16 16 16 17 17 18 18 18 18 18 17 17 17 17
24 23 24 23 21 19 18 17 17 17 16 15 15 15 15 16 16 16 16 17 17 17 17 17 17 16 16 16 16 16 16 16 16 16 16 16 16 16 16 17 17 17 17 18 18 17 17 17 17
24 24 24 23 21 19 20 18 17 16 16 15 15 15 15 16 16 16 16 17 17 17 17 17 17 17 16 16 16 16 16 15 15 15 16 16 16 16 16 16 16 17 17 17 17 17 17 17 17
24 23 22 22 20 18 18 17 17 16 16 15 15 15 15 16 16 16 16 17 17 17 17 17 17 17 17 16 16 16 16 15 15 15 15 15 15 16 16 16 16 16 16 16 16 16 17 17 16
23 21 20 17 17 19 18 18 17 15 16 16 15 15 15 15 16 16 16 16 16 16 16 16 16 17 16 16 16 16 15 15 15 15 15 15 15 15 15 15 15 16 16 16 16 16 16 16 16
21 20 19 19 18 18 17 17 17 17 16 16 15 15 15 15 15 16 16 16 16 16 16 16 16 16 16 16 16 15 15 15 15 14 14 14 14 14 14 14 14 14 15 15 15 15 15 15 15
21 20 19 19 19 18 17 17 17 16 16 16 16 15 15 15 15 15 15 15 15 15 15 15 15 15 15 15 15 15 14 14 14 14 13 13 13 13 13 13 13 13 13 14 14 14 15 15 15
21 18 18 17 18 17 17 17 17 16 16 15 15 15 15 15 15 15 15 15 15 15 15 14 14 14 14 14 14 14 14 13 13 13 13 12 12 12 12 12 12 12 12 12 12 13 13 13 14
20 17 16 17 18 18 18 17 16 16 15 14 14 15 15 15 15 15 15 15 15 14 14 14 14 13 13 13 13 13 13 13 13 12 12 12 12 11 11 11 11 11 11 11 12 12 12 12 13
19 18 15 14 15 17 17 16 15 14 14 14 14 15 15 15 15 15 15 15 14 14 14 13 13 13 13 13 13 13 12 12 12 12 12 11 11 11 11 10 10 10 10 11 11 11 11 12 12
19 18 16 17 16 15 15 15 14 13 13 14 14 15 15 15 15 15 14 14 14 13 13 13 13 13 13 12 12 12 12 12 12 12 12 11 11 11 11 10 10 10 10 10 10 10 10 11 11
Wind_Speed
17 14 5 3 1 1 3 4 3 4 3 1 3 3 5 5 5 3 1 11 16 16 17 21 22 21 20 19 18 18 17 17 17 16 16 16 15 15 15 14 13 12 11 10 9 8 8 8 8
11 8 3 2 1 3 5 4 2 3 0 2 4 4 5 2 2 4 5 9 15 15 15 18 22 21 20 19 18 17 17 16 16 15 15 15 14 14 14 13 13 11 10 10 9 8 8 8 8
8 4 3 2 0 2 5 4 1 1 1 2 3 4 3 2 4 6 7 13 14 12 13 18 23 21 20 19 18 17 16 15 15 14 14 14 13 13 13 12 12 11 10 10 9 9 8 8 8
5 2 3 2 4 5 5 5 1 2 2 4 4 3 2 2 6 7 13 15 15 12 12 17 22 21 20 18 17 16 15 15 14 14 13 13 13 13 12 12 12 11 11 10 10 9 9 9 9
3 4 3 3 6 6 5 5 2 2 2 2 4 3 1 3 8 13 16 16 16 12 11 16 22 21 19 18 17 16 15 15 14 14 13 13 13 13 12 12 12 12 11 11 10 10 10 10 10
4 4 3 3 6 7 5 3 1 1 2 3 4 3 0 3 8 13 15 14 14 13 10 14 20 20 19 18 17 16 15 14 14 13 13 13 13 13 13 13 13 12 12 12 12 12 11 11 11
5 4 3 4 5 6 4 2 1 2 2 4 6 4 1 4 5 10 11 12 12 12 10 8 13 16 17 16 15 14 14 13 13 13 13 13 13 13 14 14 13 13 13 13 13 13 13 13 13
5 5 2 3 4 6 4 3 2 3 3 3 6 6 5 6 10 10 10 10 10 10 9 7 9 10 10 11 12 12 12 12 12 13 14 14 15 15 15 15 14 15 15 15 15 15 15 15 15
4 4 3 5 5 7 4 3 3 1 2 2 3 5 5 16 16 13 11 10 10 10 9 8 7 7 8 7 8 9 10 11 12 13 14 15 13 13 13 15 16 16 17 17 18 18 17 17 16
5 4 8 6 5 6 6 5 4 1 2 3 2 3 11 18 16 14 13 13 13 12 10 8 8 7 6 6 5 5 6 7 9 10 11 11 10 11 13 13 17 18 19 19 20 20 19 17 14
6 7 6 6 6 6 5 4 2 5 6 8 7 8 13 15 13 12 11 11 11 10 9 8 7 6 5 2 2 2 2 4 7 9 10 10 9 9 12 11 13 15 16 15 16 16 15 14 13
3 7 6 6 4 4 4 3 2 6 8 4 2 8 11 13 12 11 11 10 10 10 9 8 7 6 5 3 1 2 3 3 5 8 11 9 6 6 7 8 10 10 10 9 10 8 11 12 13
4 5 5 7 10 6 4 3 2 3 5 5 11 12 11 11 9 8 10 11 11 11 10 8 7 6 4 3 2 3 3 4 6 7 9 11 7 7 6 6 8 9 9 7 6 6 7 7 8
4 6 9 10 8 4 3 2 3 5 4 9 13 12 11 10 10 9 9 10 10 10 10 8 7 5 4 3 3 3 3 4 5 6 8 10 9 6 6 7 6 6 8 8 6 5 5 5 4
3 6 10 5 5 3 3 7 9 11 7 12 13 14 15 13 12 10 7 7 8 8 7 6 5 3 2 3 4 3 3 3 3 5 7 9 9 7 6 6 5 5 7 6 4 3 2 3 3
4 4 5 8 10 6 6 5 12 12 11 14 14 14 14 13 12 10 8 6 4 4 4 3 3 1 2 4 4 4 3 3 3 4 6 7 8 7 4 5 5 5 5 4 3 3 2 2 2
6 4 4 8 12 7 8 7 10 11 13 14 13 12 12 11 10 8 7 6 5 4 2 1 1 1 2 4 4 5 4 3 2 3 5 5 5 6 5 5 5 5 3 3 3 2 3 2 2
3 3 3 3 6 12 12 10 10 11 12 13 11 11 11 10 8 6 6 6 5 4 2 1 1 1 2 2 3 3 3 3 2 2 3 3 3 6 5 5 6 4 4 3 3 3 2 2 2
3 2 2 1 3 8 11 10 10 10 11 11 10 9 9 8 6 7 6 5 5 3 3 2 3 3 2 1 2 2 2 2 2 2 2 2 4 4 4 5 5 5 5 5 5 3 3 2 1
4 2 1 2 5 6 8 9 8 9 8 7 8 8 7 6 6 6 6 6 6 4 4 3 3 3 3 2 1 1 1 2 2 2 2 3 3 4 5 6 5 6 5 5 5 4 3 2 2
3 4 4 4 3 4 5 5 4 5 6 7 7 6 5 5 6 5 5 4 3 3 3 3 3 2 2 2 1 1 1 1 2 3 3 3 4 4 4 4 5 5 5 5 6 6 6 4 2
2 3 3 4 5 1 1 1 1 1 3 4 4 4 4 3 3 3 3 3 2 1 0 2 2 2 2 2 2 2 1 1 2 2 3 4 3 3 3 4 5 5 5 5 6 6 4 4 3
2 4 4 3 5 4 5 4 3 1 2 2 2 1 2 2 2 2 3 3 3 3 2 0 1 0 0 1 2 3 2 0 1 1 3 4 4 4 3 2 3 4 5 6 6 5 6 5 5
3 6 6 5 5 3 2 2 3 3 4 3 3 2 2 3 3 4 4 5 5 4 3 2 2 2 2 2 2 3 3 2 1 1 2 2 2 3 4 3 3 2 3 5 6 6 7 7 6
6 6 5 6 5 3 2 1 4 3 2 3 3 3 3 4 4 5 6 6 7 7 6 5 5 5 4 4 4 4 4 4 3 2 2 1 1 2 3 3 3 2 3 3 4 5 7 7 7
2 6 6 3 4 4 3 2 4 1 1 2 1 2 3 4 5 7 8 8 8 9 8 7 7 7 6 6 6 5 6 4 4 5 4 4 3 4 4 3 3 3 3 3 3 4 5 5 7
3 4 4 6 1 1 4 4 4 2 2 2 1 1 3 5 6 7 8 8 8 9 9 8 8 9 9 8 7 7 7 7 7 6 5 5 5 5 5 4 4 4 3 3 3 3 4 4 5
6 6 5 4 2 2 5 3 4 7 6 3 2 2 4 5 6 7 7 7 7 7 8 8 9 10 10 9 9 8 8 8 8 6 7 7 7 6 6 6 5 5 4 4 3 3 4 4 5
6 5 6 4 4 3 3 3 4 5 3 3 3 3 5 6 6 7 6 6 7 7 8 8 9 10 10 11 10 10 10 9 8 8 9 9 8 8 8 8 7 6 6 5 4 4 5 5 5
4 4 3 3 1 2 2 4 4 2 3 3 3 5 6 6 7 7 7 7 8 8 9 9 10 10 12 12 11 11 11 10 10 11 12 10 10 9 9 8 8 8 8 6 6 6 5 5 6
Wind_Direction
145 140 135 141 115 32 288 268 262 319 346 4 131 148 148 154 180 214 28 139 138 147 157 164 161 158 154 151 148 145 143 143 144 146 149 152 156 161 164 166 168 170 170 168 166 164 160 157 153
143 148 149 119 90 11 304 284 330 333 84 60 68 77 81 98 76 108 120 135 139 144 153 160 161 158 156 153 150 148 148 148 149 151 154 158 162 166 169 171 173 174 174 174 174 172 169 166 164
152 173 120 100 144 216 278 287 286 72 97 48 59 60 99 170 144 152 149 137 134 140 149 161 161 159 157 154 152 151 152 154 156 158 161 165 169 173 176 177 178 180 180 181 183 182 178 176 174
147 94 69 58 272 246 244 269 235 106 70 62 96 74 70 81 154 151 140 140 138 141 148 163 162 160 158 156 155 156 158 162 165 167 171 174 178 181 184 186 188 190 191 193 194 194 191 188 187
90 95 54 335 279 270 259 266 220 136 114 88 115 116 47 25 113 133 142 146 145 144 149 163 162 162 160 159 160 163 166 170 174 178 182 186 188 192 195 197 199 202 203 204 204 205 204 202 201
80 79 80 283 278 283 283 280 228 130 135 130 121 120 243 110 132 146 146 146 147 148 147 161 164 163 163 164 166 169 174 179 184 189 194 198 201 203 205 208 210 213 214 215 215 215 214 213 213
130 126 194 244 279 294 290 320 197 162 174 174 141 131 221 156 152 141 137 135 138 145 144 148 158 163 165 167 170 175 181 188 194 199 204 209 212 215 217 219 221 222 224 226 226 225 225 223 223
149 126 216 259 264 275 289 331 292 193 209 157 140 154 211 172 135 124 119 122 131 140 143 139 140 144 151 163 175 183 192 199 206 211 214 218 222 223 226 227 230 232 233 235 236 235 234 233 231
117 92 228 238 237 265 280 289 283 244 154 168 176 180 170 134 132 128 123 128 141 152 151 141 130 127 131 143 171 187 204 212 217 222 225 226 228 232 235 236 236 239 241 242 242 241 240 238 238
115 168 228 230 224 262 284 256 240 206 235 244 232 119 124 133 141 147 151 156 160 161 160 149 139 127 124 151 165 186 207 219 225 227 233 234 229 232 240 245 246 247 248 250 249 247 245 243 239
164 201 240 260 257 258 269 264 194 166 236 231 211 162 135 135 143 153 159 158 156 147 149 150 145 134 134 143 153 170 222 237 236 234 234 236 236 236 241 243 251 254 256 255 254 251 243 236 232
220 245 247 270 282 288 254 243 191 192 230 235 160 123 130 139 153 157 148 140 135 137 144 142 145 143 150 142 154 172 206 223 231 235 233 230 231 231 234 238 240 243 248 252 251 243 237 234 232
249 267 273 266 281 256 237 234 228 274 266 56 86 101 116 130 130 121 126 130 133 138 141 147 146 151 158 156 192 215 223 231 232 230 234 230 230 236 237 238 239 238 239 243 244 238 234 232 232
263 276 283 279 275 250 171 13 30 323 5 75 85 89 92 93 98 106 117 128 137 144 149 155 159 162 170 192 217 234 234 235 231 233 232 234 234 235 241 246 240 237 235 237 235 232 229 231 229
297 306 312 307 316 306 107 27 10 344 54 80 84 83 78 76 78 84 100 123 136 143 145 150 161 176 206 238 250 249 247 255 240 242 245 243 240 237 242 245 240 235 233 227 225 228 217 222 223
14 8 334 329 349 358 90 48 6 4 78 82 80 80 79 74 73 74 77 83 102 112 121 137 157 163 266 279 284 284 281 267 258 258 259 248 244 242 240 242 238 230 219 203 195 190 187 206 213
26 12 334 339 6 35 74 66 18 28 75 80 82 85 86 79 70 70 74 74 67 66 75 67 8 289 293 297 290 279 277 271 269 267 267 259 243 234 230 233 229 216 204 197 193 179 182 195 218
301 331 335 4 23 65 79 68 36 33 66 77 78 82 83 78 67 65 69 77 74 62 50 40 295 304 294 289 282 273 280 290 304 284 281 257 235 230 218 220 221 199 195 193 186 177 180 190 206
234 257 296 281 126 75 80 69 40 33 51 61 63 70 75 72 63 61 57 63 74 61 41 20 359 342 341 309 278 274 302 318 325 303 300 275 248 232 219 222 214 200 198 200 188 171 181 193 172
203 225 220 97 104 105 96 74 49 38 40 45 52 52 58 58 48 44 43 42 47 45 37 35 20 351 349 336 299 278 253 274 280 303 304 274 259 246 234 221 216 207 198 197 193 178 171 185 168
188 186 204 167 99 95 112 58 34 37 36 43 46 48 48 54 42 25 29 37 42 44 43 58 36 20 360 350 351 352 352 343 354 333 318 306 285 259 252 241 229 218 205 203 200 190 179 185 193
290 255 211 160 133 146 136 175 282 17 12 21 21 27 30 34 35 8 352 351 357 332 146 91 69 45 18 29 66 64 49 3 335 323 319 316 313 300 275 256 241 231 220 217 213 201 191 174 188
224 52 68 90 121 81 37 108 276 247 274 268 282 304 328 324 328 307 298 295 297 289 275 163 121 81 51 90 109 103 97 201 287 326 353 351 345 342 332 297 257 239 227 223 219 207 203 195 187
107 73 54 51 69 54 330 123 253 232 223 212 228 251 271 292 302 302 295 291 290 284 279 268 251 244 235 191 169 157 163 177 163 21 8 352 336 336 344 340 329 301 265 239 226 218 213 210 203
60 73 25 3 8 272 303 143 252 249 200 186 209 235 251 267 277 282 279 278 276 274 269 263 255 254 247 233 221 207 200 200 201 212 220 254 292 296 313 332 321 315 300 278 245 224 224 217 213
58 120 147 208 240 286 351 287 277 299 121 113 155 250 257 262 263 265 268 270 272 273 270 264 260 261 257 246 241 235 224 217 220 222 220 225 232 248 261 278 291 293 291 291 274 244 234 223 222
73 67 130 130 121 335 313 309 333 55 31 32 3 270 267 268 269 270 272 273 273 275 274 269 266 265 263 257 254 252 243 232 229 230 229 233 238 247 250 257 265 274 276 271 263 250 247 236 229
79 124 80 89 109 317 320 332 325 335 342 354 5 336 301 295 291 285 284 283 280 275 273 272 262 260 264 263 258 256 250 245 241 237 237 237 238 240 250 257 256 259 261 262 256 251 246 241 236
12 47 83 92 123 143 295 301 340 319 337 8 4 339 319 307 298 293 292 291 286 284 279 276 272 269 268 265 260 258 256 251 245 242 243 240 238 233 235 241 247 254 255 247 242 252 251 242 242
60 55 107 108 71 124 195 272 336 26 45 48 359 321 308 298 291 289 293 296 293 286 281 276 271 266 263 262 261 260 261 256 248 245 245 240 238 237 233 234 237 246 251 243 236 244 248 244 242
Height
1502 1503 1505 1509 1511 1513 1509 1497 1488 1484 1482 1481 1482 1483 1484 1487 1492 1495 1487 1487 1491 1495 1500 1505 1509 1513 1516 1519 1521 1524 1526 1529 1531 1532 1534 1536 1537 1539 1540 1541 1542 1544 1545 1545 1546 1547 1548 1548 1549
1503 1504 1508 1509 1511 1517 1506 1490 1486 1483 1482 1482 1482 1483 1484 1485 1486 1486 1485 1488 1493 1497 1501 1505 1510 1514 1517 1520 1522 1525 1527 1529 1531 1533 1535 1536 1538 1539 1540 1542 1543 1544 1545 1546 1547 1548 1548 1549 1550
1503 1505 1508 1508 1510 1511 1501 1487 1483 1482 1482 1482 1483 1484 1484 1485 1485 1486 1487 1491 1495 1499 1503 1507 1511 1514 1518 1520 1523 1525 1528 1530 1532 1533 1535 1537 1538 1539 1541 1542 1543 1544 1545 1546 1547 1548 1549 1550 1550
1503 1506 1507 1510 1508 1498 1491 1483 1481 1481 1482 1482 1483 1485 1485 1486 1486 1487 1489 1492 1496 1500 1504 1508 1512 1515 1518 1521 1524 1526 1528 1530 1532 1534 1535 1537 1538 1540 1541 1542 1543 1544 1545 1546 1547 1548 1549 1550 1551
1503 1504 1509 1514 1506 1493 1484 1481 1480 1480 1481 1482 1483 1485 1486 1486 1487 1489 1491 1494 1497 1501 1505 1509 1513 1516 1519 1522 1525 1527 1529 1531 1532 1534 1536 1537 1538 1540 1541 1542 1543 1545 1545 1546 1547 1548 1549 1550 1551
1503 1504 1515 1516 1504 1490 1483 1480 1480 1480 1480 1481 1482 1484 1486 1487 1488 1490 1492 1495 1498 1502 1506 1510 1513 1517 1520 1523 1525 1527 1529 1531 1533 1534 1536 1537 1539 1540 1541 1542 1543 1544 1545 1546 1546 1547 1548 1549 1550
1502 1507 1511 1508 1503 1493 1483 1480 1480 1480 1480 1480 1481 1483 1485 1486 1488 1491 1493 1496 1499 1503 1506 1510 1514 1517 1520 1523 1526 1528 1529 1531 1532 1534 1535 1537 1538 1539 1540 1541 1542 1542 1543 1544 1545 1545 1546 1547 1548
1499 1504 1506 1506 1502 1494 1483 1481 1480 1480 1480 1480 1481 1482 1483 1486 1487 1490 1493 1496 1499 1502 1506 1510 1513 1517 1520 1523 1525 1527 1529 1530 1532 1533 1534 1535 1536 1537 1538 1539 1540 1541 1541 1542 1543 1543 1544 1545 1545
1497 1507 1511 1503 1498 1490 1482 1481 1480 1479 1479 1479 1480 1481 1482 1484 1486 1489 1492 1495 1499 1502 1506 1509 1513 1516 1519 1522 1524 1526 1528 1529 1530 1531 1532 1533 1534 1535 1536 1537 1538 1539 1539 1540 1540 1541 1541 1542 1542
1496 1508 1501 1492 1488 1485 1481 1480 1479 1479 1479 1478 1479 1479 1480 1483 1485 1488 1491 1493 1497 1500 1505 1508 1512 1515 1518 1521 1522 1524 1525 1526 1527 1529 1530 1531 1532 1533 1534 1535 1536 1536 1537 1537 1538 1538 1539 1539 1539
1493 1497 1491 1486 1484 1483 1481 1479 1478 1479 1479 1476 1475 1477 1479 1482 1485 1488 1491 1494 1497 1501 1504 1507 1511 1514 1517 1519 1520 1521 1522 1524 1524 1525 1527 1528 1529 1530 1531 1532 1533 1533 1534 1534 1534 1535 1535 1535 1536
1492 1489 1487 1484 1482 1481 1479 1478 1478 1478 1477 1475 1476 1478 1480 1482 1485 1488 1492 1495 1498 1501 1504 1507 1510 1512 1514 1516 1517 1518 1519 1520 1521 1522 1523 1524 1525 1526 1527 1528 1529 1530 1531 1531 1531 1531 1531 1532 1532
1489 1487 1484 1482 1480 1478 1478 1478 1478 1478 1477 1477 1477 1478 1480 1483 1486 1491 1493 1496 1498 1501 1503 1506 1509 1511 1512 1513 1513 1514 1514 1514 1515 1516 1518 1520 1521 1522 1523 1524 1525 1526 1527 1527 1527 1528 1528 1528 1528
1487 1485 1482 1478 1476 1475 1477 1479 1481 1481 1478 1477 1478 1480 1482 1486 1489 1492 1494 1496 1498 1500 1502 1505 1507 1508 1510 1510 1510 1510 1509 1508 1509 1511 1512 1514 1516 1518 1519 1520 1521 1522 1522 1523 1522 1523 1523 1523 1524
1485 1485 1481 1476 1475 1474 1476 1484 1487 1484 1479 1479 1481 1483 1486 1489 1491 1493 1495 1497 1499 1501 1502 1504 1507 1507 1508 1507 1507 1506 1504 1503 1503 1504 1506 1509 1511 1513 1514 1515 1516 1517 1518 1518 1518 1518 1518 1519 1519
1485 1489 1491 1481 1477 1475 1481 1497 1493 1487 1482 1483 1485 1487 1488 1490 1492 1494 1496 1497 1499 1501 1502 1503 1504 1504 1504 1504 1503 1502 1500 1499 1499 1499 1500 1502 1505 1507 1510 1511 1512 1514 1514 1514 1514 1514 1515 1515 1515
1495 1499 1496 1489 1482 1481 1487 1500 1498 1492 1487 1488 1489 1490 1491 1492 1494 1494 1496 1497 1499 1500 1501 1502 1502 1501 1501 1501 1499 1498 1496 1495 1494 1495 1494 1495 1498 1502 1506 1508 1509 1510 1510 1510 1510 1511 1511 1511 1511
1500 1498 1497 1496 1492 1489 1495 1502 1500 1497 1492 1492 1492 1493 1493 1494 1495 1496 1497 1497 1498 1499 1500 1500 1500 1499 1498 1497 1496 1494 1492 1491 1490 1490 1490 1491 1494 1499 1503 1505 1506 1506 1507 1507 1507 1507 1508 1507 1507
1491 1495 1498 1494 1491 1496 1502 1504 1503 1500 1497 1496 1496 1495 1495 1496 1497 1497 1497 1498 1498 1498 1499 1498 1499 1498 1496 1494 1493 1491 1489 1488 1488 1488 1488 1490 1494 1497 1500 1501 1502 1503 1504 1504 1504 1504 1504 1504 1504
1491 1495 1495 1494 1493 1497 1504 1506 1505 1504 1502 1501 1500 1499 1498 1498 1498 1498 1499 1498 1498 1498 1499 1498 1497 1497 1495 1493 1492 1490 1488 1488 1488 1488 1489 1491 1493 1496 1497 1498 1499 1500 1501 1501 1501 1501 1502 1501 1501
1488 1491 1490 1493 1495 1498 1503 1510 1509 1507 1506 1505 1503 1502 1501 1501 1501 1501 1501 1500 1500 1499 1498 1497 1496 1495 1494 1493 1491 1490 1489 1489 1488 1488 1489 1490 1491 1492 1493 1495 1496 1497 1498 1498 1498 1498 1499 1499 1498
1489 1481 1482 1487 1498 1508 1504 1519 1513 1510 1509 1507 1506 1504 1504 1503 1502 1503 1502 1502 1500 1500 1499 1497 1496 1495 1494 1493 1491 1490 1489 1488 1487 1486 1486 1487 1488 1488 1489 1490 1491 1492 1493 1494 1494 1495 1495 1495 1495
1481 1480 1484 1489 1497 1509 1510 1518 1518 1511 1511 1509 1507 1506 1505 1505 1504 1504 1504 1503 1502 1501 1499 1497 1496 1495 1493 1492 1491 1489 1487 1486 1485 1484 1484 1483 1484 1484 1484 1485 1486 1487 1488 1489 1489 1490 1491 1491 1492
1478 1484 1491 1499 1506 1518 1515 1517 1519 1513 1509 1508 1508 1507 1507 1506 1505 1505 1504 1504 1502 1501 1499 1497 1496 1494 1492 1491 1489 1487 1486 1484 1482 1481 1480 1480 1479 1479 1479 1479 1479 1480 1481 1482 1483 1484 1485 1486 1487
1483 1497 1516 1518 1526 1523 1514 1517 1517 1506 1505 1506 1507 1507 1507 1507 1506 1505 1505 1503 1502 1500 1499 1497 1495 1493 1491 1489 1487 1485 1483 1481 1479 1477 1476 1475 1474 1474 1474 1473 1473 1473 1474 1475 1476 1477 1479 1480 1481
1488 1496 1518 1527 1529 1524 1517 1518 1512 1505 1505 1506 1506 1507 1507 1507 1506 1505 1504 1502 1501 1499 1497 1495 1492 1490 1488 1486 1484 1482 1479 1477 1475 1474 1472 1470 1469 1468 1468 1468 1467 1467 1467 1467 1468 1470 1471 1473 1474
1491 1501 1502 1517 1521 1527 1521 1514 1507 1505 1505 1506 1506 1506 1506 1506 1505 1504 1502 1500 1498 1496 1494 1492 1489 1487 1485 1482 1480 1478 1475 1473 1471 1469 1468 1466 1465 1464 1463 1462 1462 1461 1461 1461 1462 1462 1463 1465 1466
1491 1499 1510 1519 1527 1531 1523 1520 1521 1511 1509 1507 1507 1506 1505 1504 1503 1501 1499 1497 1494 1492 1490 1487 1485 1482 1480 1478 1475 1473 1470 1468 1466 1464 1463 1462 1461 1459 1458 1457 1457 1456 1456 1456 1456 1456 1456 1458 1459
1499 1502 1513 1522 1523 1531 1533 1529 1516 1514 1511 1509 1507 1506 1505 1503 1500 1498 1495 1493 1490 1488 1485 1482 1479 1477 1474 1471 1469 1466 1464 1462 1460 1458 1457 1456 1455 1454 1453 1452 1451 1451 1450 1450 1449 1449 1450 1451 1452
1499 1504 1511 1520 1526 1529 1534 1532 1515 1513 1510 1508 1507 1505 1503 1501 1498 1495 1492 1490 1487 1483 1480 1477 1474 1471 1468 1465 1462 1459 1456 1454 1452 1450 1449 1448 1448 1447 1447 1446 1446 1445 1445 1444 1444 1444 1444 1445 1445